Radiation Dose measured at exhaust stack monitor of Fukushima Daiichi Nuclear Power Station
Date,Time,Unit 5 6 shared exhaust cylinders,Wind Direction,Wind Velocity(m/s)
2024/07/05,00:00,3.5,northwest,1.5
2024/07/05,00:10,3.6,north-northwest,2.6
2024/07/05,00:20,3.7,north-northwest,3.5
2024/07/05,00:30,3.6,northwest,2.6
2024/07/05,00:40,3.6,northwest,1.9
2024/07/05,00:50,3.7,northwest,0.9
2024/07/05,01:00,3.5,north-northwest,0.9
2024/07/05,01:10,3.7,-,CALM
2024/07/05,01:20,3.6,west-northwest,1.5
2024/07/05,01:30,3.5,west-southwest,2.2
2024/07/05,01:40,3.6,west,2.3
2024/07/05,01:50,3.5,west,3.4
2024/07/05,02:00,3.6,west,3.6
2024/07/05,02:10,3.6,west,4.3
2024/07/05,02:20,3.7,west,3.3
2024/07/05,02:30,3.7,west,4.2
2024/07/05,02:40,3.7,west,5.4
2024/07/05,02:50,3.6,west-southwest,5.7
2024/07/05,03:00,3.6,west,3.7
2024/07/05,03:10,3.4,west,2.8
2024/07/05,03:20,3.6,west-northwest,2.8
2024/07/05,03:30,3.7,west,3.1
2024/07/05,03:40,3.7,west,2.6
2024/07/05,03:50,3.7,west,3.7
2024/07/05,04:00,3.5,west,4.2
2024/07/05,04:10,3.6,west-northwest,6.3
2024/07/05,04:20,3.8,west,7.4
2024/07/05,04:30,3.7,west,6.2
2024/07/05,04:40,3.6,west-northwest,8.4
2024/07/05,04:50,3.7,west-northwest,8.7
2024/07/05,05:00,3.5,west-northwest,8.5
2024/07/05,05:10,3.5,west-northwest,8.4
2024/07/05,05:20,3.5,west,8.8
2024/07/05,05:30,3.6,west,8.7
2024/07/05,05:40,3.8,west,6.9
2024/07/05,05:50,3.7,west-northwest,7.6
2024/07/05,06:00,3.6,west-northwest,7.6
2024/07/05,06:10,3.5,west,7.9
2024/07/05,06:20,3.6,west,6.2
2024/07/05,06:30,3.5,west,6.1
2024/07/05,06:40,3.7,west,8.5
2024/07/05,06:50,3.7,west,7.0
2024/07/05,07:00,3.6,west,6.4
2024/07/05,07:10,3.5,west,6.1
2024/07/05,07:20,3.5,west,6.7
2024/07/05,07:30,3.5,west-northwest,9.3
2024/07/05,07:40,3.5,west,7.1
2024/07/05,07:50,3.6,west,6.9
2024/07/05,08:00,3.7,west,7.3
2024/07/05,08:10,3.7,west,6.2
2024/07/05,08:20,3.6,west,4.7
2024/07/05,08:30,3.8,west,5.9
2024/07/05,08:40,3.8,west,6.6
2024/07/05,08:50,3.7,west,4.7
2024/07/05,09:00,3.6,west-southwest,5.7
2024/07/05,09:10,3.7,west,8.3
2024/07/05,09:20,3.6,west-southwest,8.2
2024/07/05,09:30,3.6,west,8.0
2024/07/05,09:40,3.6,west,6.8
2024/07/05,09:50,3.6,west,5.2
2024/07/05,10:00,3.6,west,3.9
2024/07/05,10:10,3.6,west,6.0
2024/07/05,10:20,3.7,west,4.0
2024/07/05,10:30,3.5,south-southwest,3.8
2024/07/05,10:40,3.5,south,5.2
2024/07/05,10:50,3.6,south-southeast,6.9
2024/07/05,11:00,3.7,south-southeast,5.4
2024/07/05,11:10,3.5,south-southeast,5.8
2024/07/05,11:20,3.8,south-southeast,6.9
2024/07/05,11:30,3.6,south,6.1
2024/07/05,11:40,3.6,south,6.8
2024/07/05,11:50,3.6,south-southeast,6.0
2024/07/05,12:00,3.7,south,6.2
2024/07/05,12:10,3.6,south,5.4
2024/07/05,12:20,3.5,south-southeast,5.2
2024/07/05,12:30,3.6,south-southeast,4.6
2024/07/05,12:40,3.6,south,8.2
2024/07/05,12:50,3.5,south,6.4
2024/07/05,13:00,3.5,south,7.8
2024/07/05,13:10,3.6,south,8.4
2024/07/05,13:20,3.6,south-southeast,9.3
2024/07/05,13:30,3.5,south-southeast,10.2
2024/07/05,13:40,3.5,south-southeast,10.2
2024/07/05,13:50,3.6,south-southeast,10.9
2024/07/05,14:00,3.6,south,10.8
2024/07/05,14:10,3.5,south-southeast,11.8
2024/07/05,14:20,3.5,south-southeast,10.3
2024/07/05,14:30,3.7,south,8.7
2024/07/05,14:40,3.7,south-southeast,11.4
2024/07/05,14:50,3.6,south,8.9
2024/07/05,15:00,3.6,south-southeast,7.8
2024/07/05,15:10,3.5,south-southeast,8.8
2024/07/05,15:20,3.6,south-southeast,8.9
2024/07/05,15:30,3.5,south-southeast,10.3
2024/07/05,15:40,3.5,south-southeast,12.7
2024/07/05,15:50,3.7,south-southeast,11.6
2024/07/05,16:00,3.5,south-southeast,13.1
2024/07/05,16:10,3.6,south-southeast,14.1
2024/07/05,16:20,3.5,south-southeast,13.0
2024/07/05,16:30,3.8,south-southeast,12.4
2024/07/05,16:40,3.7,south-southeast,10.5
2024/07/05,16:50,3.8,south-southeast,13.1
2024/07/05,17:00,3.6,south,12.8
2024/07/05,17:10,3.6,south-southeast,12.4
2024/07/05,17:20,3.5,south-southeast,10.5
2024/07/05,17:30,3.7,south-southeast,10.8
2024/07/05,17:40,3.7,south,9.0
2024/07/05,17:50,3.5,south,8.1
2024/07/05,18:00,3.6,south-southeast,11.6
2024/07/05,18:10,3.7,south,10.2
2024/07/05,18:20,3.5,south,10.3
2024/07/05,18:30,3.6,south,9.5
2024/07/05,18:40,3.7,south,9.0
2024/07/05,18:50,3.6,south,9.3
2024/07/05,19:00,3.5,south,7.9
2024/07/05,19:10,3.6,south,8.4
2024/07/05,19:20,3.6,south,9.1
2024/07/05,19:30,3.6,south,7.5
2024/07/05,19:40,3.6,south,7.0
2024/07/05,19:50,3.7,south,7.2
2024/07/05,20:00,3.6,south,6.7
2024/07/05,20:10,3.6,south,6.6
2024/07/05,20:20,3.6,south,6.6
2024/07/05,20:30,3.7,south,6.4
2024/07/05,20:40,3.7,south,5.9
2024/07/05,20:50,3.6,south,5.7
2024/07/05,21:00,3.6,south,6.9
2024/07/05,21:10,3.5,south,6.2
2024/07/05,21:20,3.7,south,5.3
2024/07/05,21:30,3.5,south,5.4
2024/07/05,21:40,3.5,south,7.1
2024/07/05,21:50,3.5,south,6.4
2024/07/05,22:00,3.5,south,6.9
2024/07/05,22:10,3.7,south,5.9
2024/07/05,22:20,3.8,south,4.5
2024/07/05,22:30,3.5,south-southwest,3.3
2024/07/05,22:40,3.7,west-southwest,2.0
2024/07/05,22:50,3.7,south-southwest,2.5
2024/07/05,23:00,3.5,south-southeast,3.4
2024/07/05,23:10,3.7,south-southeast,4.6
2024/07/05,23:20,3.4,south-southeast,6.1
2024/07/05,23:30,3.7,south-southeast,8.0
2024/07/05,23:40,3.5,south,6.1
2024/07/05,23:50,3.5,south,5.9
